DW7013 Weather Reports


Display with metric or nautical units.
time (UTC)temp
F
wind
direction
speed
MPH
gust
MPH
rain 1hr
in
rain 24hr
in
rain mn
in
humidity
%
barometer
mb
20260905085217 62 26 1.0 5.0 0.00 0.05 0.05 87 1025.0
20260905084711 62 331 0.0 4.0 0.00 0.05 0.05 90 1025.0
20260905084215 62 229 0.0 0.0 0.00 0.05 0.05 91 1025.0
20260905083715 62 229 0.0 0.0 0.01 0.05 0.05 91 1024.8
20260905083228 62 229 0.0 0.0 0.02 0.05 0.05 92 1024.8
20260905082711 62 229 0.0 0.0 0.03 0.05 0.05 91 1024.7
20260905082213 62 229 0.0 0.0 0.04 0.05 0.05 91 1024.7
20260905081715 61 229 0.0 0.0 0.04 0.05 0.05 91 1024.6
20260905080720 61 234 0.0 0.0 0.04 0.05 0.05 91 1024.6
20260905080229 61 234 0.0 0.0 0.04 0.05 0.05 91 1024.5
20260905075740 61 234 0.0 0.0 0.04 0.05 0.05 91 1024.4
20260905074213 61 269 0.0 0.0 0.03 0.04 0.04 90 1024.4
20260905073219 61 269 0.0 0.0 0.02 0.02 0.02 89 1024.3
20260905072718 61 215 0.0 0.0 0.00 0.01 0.01 89 1024.1
20260905072218 61 202 0.0 0.0 0.00 0.01 0.01 88 1024.1
20260905071216 61 178 0.0 0.0 0.00 0.01 0.01 89 1024.0
20260905065716 61 178 0.0 0.0 0.00 0.01 0.01 88 1023.8
20260905065228 61 178 0.0 0.0 0.00 0.01 0.01 89 1023.8
20260905064218 61 178 0.0 0.0 0.00 0.01 0.01 89 1023.8
20260905062712 61 178 0.0 0.0 0.00 0.01 0.01 89 1023.6
20260905062217 61 179 0.0 0.0 0.00 0.01 0.01 89 1023.6
20260905061717 61 178 0.0 0.0 0.00 0.01 0.01 89 1023.5
20260905061225 61 178 0.0 0.0 0.00 0.01 0.01 90 1023.4
20260905060724 61 178 0.0 0.0 0.00 0.01 0.01 89 1023.4
20260905060227 61 138 0.0 0.0 0.00 0.01 0.01 89 1023.3
20260905055732 61 138 0.0 0.0 0.00 0.01 0.01 89 1023.3
20260905055213 61 138 0.0 0.0 0.00 0.01 0.01 89 1023.3
20260905054727 61 138 0.0 0.0 0.00 0.01 0.01 90 1023.3
20260905054218 61 138 0.0 0.0 0.00 0.01 0.01 89 1023.2
20260905053732 61 149 0.0 0.0 0.00 0.01 0.01 89 1023.1
20260905052749 61 167 0.0 0.0 0.00 0.01 0.01 89 1023.1
20260905052209 61 167 0.0 0.0 0.00 0.01 0.01 89 1023.1
20260905051716 61 167 0.0 0.0 0.00 0.01 0.01 89 1022.8
20260905051215 61 167 0.0 0.0 0.00 0.01 0.01 89 1023.1
20260905050723 62 167 0.0 0.0 0.01 0.01 0.01 89 1023.0
20260905050222 62 162 0.0 0.0 0.01 0.01 0.01 88 1022.8
20260905045734 62 162 0.0 0.0 0.01 0.01 0.01 88 1022.6
20260905045216 62 162 0.0 0.0 0.01 0.01 0.01 87 1022.4
20260905043724 62 106 0.0 0.0 0.01 0.01 0.01 86 1022.1
20260905042726 62 107 0.0 0.0 0.01 0.01 0.01 86 1022.1
20260905042227 62 107 0.0 0.0 0.01 0.01 0.01 85 1022.1
20260905041216 62 107 0.0 0.0 0.00 0.00 0.00 83 1022.1
20260905040714 62 107 0.0 0.0 0.00 0.00 0.00 83 1022.2
20260905040211 62 107 0.0 0.0 0.00 0.00 0.00 82 1022.3
20260905035231 62 107 0.0 0.0 0.00 0.00 0.00 81 1022.1
20260905034730 62 42 0.0 0.0 0.00 0.00 0.00 81 1022.2
20260905033721 62 33 0.0 0.0 0.00 0.00 0.00 80 1022.1
20260905033208 62 33 0.0 0.0 0.00 0.00 0.00 80 1022.1
20260905032715 62 33 0.0 0.0 0.00 0.00 0.00 80 1022.1
20260905032211 62 33 0.0 0.0 0.00 0.00 0.00 80 1022.0
20260905031719 62 33 0.0 0.0 0.00 0.00 0.00 79 1022.0
20260905031214 63 33 0.0 0.0 0.00 0.00 0.00 79 1022.0
20260905030241 63 32 0.0 0.0 0.00 0.00 0.00 79 1021.9
20260905025723 63 21 0.0 0.0 0.00 0.00 0.00 78 1021.9
20260905024725 63 21 0.0 0.0 0.00 0.00 0.00 77 1021.8
20260905024211 64 5 0.0 0.0 0.00 0.00 0.00 77 1021.5
20260905023723 64 5 0.0 0.0 0.00 0.00 0.00 77 1021.7
20260905023227 64 0 0.0 0.0 0.00 0.00 0.00 76 1021.8
20260905022720 64 351 0.0 0.0 0.00 0.00 0.00 76 1021.7
20260905022220 64 351 0.0 0.0 0.00 0.00 0.00 76 1021.7
20260905021250 64 351 0.0 0.0 0.00 0.00 0.00 76 1021.8
20260905020719 64 5 0.0 0.0 0.00 0.00 0.00 76 1021.7
20260905020213 65 5 0.0 0.0 0.00 0.00 0.00 75 1021.7
20260905015721 65 5 0.0 0.0 0.00 0.00 0.00 75 1021.8
20260905014721 65 24 0.0 6.0 0.00 0.00 0.00 74 1021.7
20260905014229 65 355 1.0 6.0 0.00 0.00 0.00 74 1021.7
20260905013715 65 302 1.0 7.0 0.00 0.00 0.00 74 1021.7
20260905013211 65 0 1.0 7.0 0.00 0.00 0.00 73 1021.7
20260905012232 65 322 0.0 3.0 0.00 0.00 0.00 71 1021.7
20260905011726 65 336 0.0 2.0 0.00 0.00 0.00 70 1021.5
20260905011215 65 336 0.0 0.0 0.00 0.00 0.00 70 1021.4
20260905010731 66 5 0.0 3.0 0.00 0.00 0.00 69 1021.3
20260905010217 66 17 0.0 3.0 0.00 0.00 0.00 68 1021.3
20260905005707 66 355 0.0 5.0 0.00 0.00 0.00 68 1021.4
20260905004711 66 355 1.0 8.0 0.00 0.00 0.00 67 1021.3
20260905003729 67 5 5.0 10.0 0.00 0.00 0.00 66 1021.4
20260905003216 67 323 4.0 10.0 0.00 0.00 0.00 66 1021.3
20260905002709 67 336 1.0 8.0 0.00 0.00 0.00 66 1021.2
20260905002220 67 337 0.0 11.0 0.00 0.00 0.00 65 1021.1
20260905001718 68 324 1.0 12.0 0.00 0.00 0.00 65 1021.1
20260905001231 68 324 4.0 12.0 0.00 0.00 0.00 65 1021.1
20260904235721 68 350 4.0 11.0 0.00 0.00 0.00 64 1021.1
20260904235227 68 333 2.0 8.0 0.00 0.00 0.00 64 1021.1
20260904234714 68 322 2.0 8.0 0.00 0.00 0.00 63 1021.0
20260904234232 68 333 1.0 5.0 0.00 0.00 0.00 62 1021.0
20260904233728 69 5 1.0 5.0 0.00 0.00 0.00 62 1021.0
20260904233225 69 324 0.0 5.0 0.00 0.00 0.00 61 1021.0
20260904232217 70 348 1.0 6.0 0.00 0.00 0.00 59 1020.9
20260904231721 71 336 1.0 9.0 0.00 0.00 0.00 58 1021.0
20260904231228 71 349 2.0 9.0 0.00 0.00 0.00 57 1021.0
20260904230722 72 351 3.0 9.0 0.00 0.00 0.00 56 1020.9
20260904230246 72 5 3.0 11.0 0.00 0.00 0.00 55 1020.9
20260904225727 72 347 4.0 11.0 0.00 0.00 0.00 56 1020.9
20260904225222 72 340 4.0 7.0 0.00 0.00 0.00 55 1020.8
20260904224717 72 13 3.0 9.0 0.00 0.00 0.00 56 1020.8
20260904224215 71 335 4.0 9.0 0.00 0.00 0.00 56 1020.7
20260904223712 71 324 3.0 8.0 0.00 0.00 0.00 57 1020.6
20260904222725 70 9 2.0 8.0 0.00 0.00 0.00 59 1020.6
20260904221724 69 342 0.0 4.0 0.00 0.00 0.00 62 1020.5
20260904220713 69 31 0.0 0.0 0.00 0.00 0.00 63 1020.5
20260904220225 69 87 0.0 0.0 0.00 0.00 0.00 63 1020.5
20260904215713 69 307 0.0 0.0 0.00 0.00 0.00 63 1020.5
20260904215227 69 344 0.0 0.0 0.00 0.00 0.00 63 1020.5
20260904213718 69 325 0.0 4.0 0.00 0.00 0.00 63 1020.4
20260904213217 69 311 0.0 4.0 0.00 0.00 0.00 63 1020.4
20260904212712 69 84 0.0 0.0 0.00 0.00 0.00 63 1020.4
20260904212255 69 355 0.0 0.0 0.00 0.00 0.00 64 1020.4
20260904211220 69 13 0.0 0.0 0.00 0.00 0.00 63 1020.4
20260904210726 69 355 0.0 0.0 0.00 0.00 0.00 63 1020.4
20260904210216 69 344 0.0 0.0 0.00 0.00 0.00 63 1020.4
20260904205718 70 19 0.0 0.0 0.00 0.00 0.00 63 1020.4
20260904204218 70 38 0.0 0.0 0.00 0.00 0.00 61 1020.4
20260904203721 70 44 0.0 0.0 0.00 0.00 0.00 61 1020.4
20260904203220 71 355 0.0 0.0 0.00 0.00 0.00 61 1020.4
20260904202728 71 351 0.0 0.0 0.00 0.00 0.00 61 1020.5
20260904202230 72 38 0.0 0.0 0.00 0.00 0.00 60 1020.5
20260904201725 72 63 0.0 0.0 0.00 0.00 0.00 59 1020.6
20260904200730 73 313 0.0 0.0 0.00 0.00 0.00 58 1020.4
20260904200210 73 313 0.0 2.0 0.00 0.00 0.00 57 1020.4
20260904195720 73 9 0.0 5.0 0.00 0.00 0.00 57 1020.4
20260904195231 74 150 0.0 11.0 0.00 0.00 0.00 57 1020.3
20260904194711 74 196 1.0 11.0 0.00 0.00 0.00 54 1020.3
20260904194216 74 309 1.0 11.0 0.00 0.00 0.00 55 1020.3
20260904193726 74 344 2.0 8.0 0.00 0.00 0.00 55 1020.3
20260904193212 74 13 3.0 13.0 0.00 0.00 0.00 56 1020.3
20260904191713 73 5 1.0 6.0 0.00 0.00 0.00 57 1020.3
20260904191219 73 71 0.0 6.0 0.00 0.00 0.00 58 1020.3
20260904190716 73 37 0.0 6.0 0.00 0.00 0.00 59 1020.1
20260904190215 73 328 0.0 0.0 0.00 0.00 0.00 58 1020.0
20260904185720 74 0 0.0 0.0 0.00 0.00 0.00 58 1020.0
20260904185224 74 103 0.0 0.0 0.00 0.00 0.00 58 1020.0
20260904184717 74 343 0.0 2.0 0.00 0.00 0.00 58 1019.9
20260904184218 74 80 0.0 2.0 0.00 0.00 0.00 57 1019.8
20260904183722 74 325 0.0 2.0 0.00 0.00 0.00 57 1019.9
20260904183219 74 53 0.0 0.0 0.00 0.00 0.00 56 1019.8
20260904182733 75 5 0.0 0.0 0.00 0.00 0.00 56 1019.7
20260904182220 75 182 0.0 0.0 0.00 0.00 0.00 56 1019.7
20260904181728 75 355 0.0 0.0 0.00 0.00 0.00 55 1019.7
20260904181223 76 276 0.0 0.0 0.00 0.00 0.00 55 1019.5
20260904180708 76 276 0.0 0.0 0.00 0.00 0.00 54 1019.5
20260904180210 76 12 0.0 0.0 0.00 0.00 0.00 53 1019.5
20260904175726 76 302 0.0 6.0 0.00 0.00 0.00 53 1019.4
20260904175213 77 5 0.0 7.0 0.00 0.00 0.00 52 1019.4
20260904173724 77 355 3.0 15.0 0.00 0.00 0.00 51 1019.3
20260904173225 77 355 3.0 15.0 0.00 0.00 0.00 50 1019.4
20260904172210 78 355 1.0 9.0 0.00 0.00 0.00 49 1019.3
20260904171721 78 329 2.0 13.0 0.00 0.00 0.00 48 1019.4
20260904171224 78 5 2.0 14.0 0.00 0.00 0.00 48 1019.4
20260904170712 78 41 4.0 14.0 0.00 0.00 0.00 48 1019.4
20260904170220 79 347 3.0 14.0 0.00 0.00 0.00 47 1019.4
20260904165723 79 355 2.0 18.0 0.00 0.00 0.00 47 1019.3
20260904165210 79 0 4.0 18.0 0.00 0.00 0.00 46 1019.3
20260904164710 80 293 7.0 18.0 0.00 0.00 0.00 46 1019.4
20260904164209 81 336 6.0 15.0 0.00 0.00 0.00 44 1019.4
20260904163721 82 51 3.0 13.0 0.00 0.00 0.00 43 1019.3
20260904163219 83 123 3.0 14.0 0.00 0.00 0.00 42 1019.3
20260904162719 83 355 3.0 18.0 0.00 0.00 0.00 43 1019.3
20260904162212 83 37 5.0 18.0 0.00 0.00 0.00 42 1019.3
20260904161726 83 80 5.0 18.0 0.00 0.00 0.00 41 1019.3
20260904161223 83 78 4.0 14.0 0.00 0.00 0.00 40 1019.2
20260904160717 83 344 3.0 15.0 0.00 0.00 0.00 40 1019.2
20260904155721 83 14 2.0 15.0 0.00 0.00 0.00 41 1019.1
20260904155226 83 5 2.0 9.0 0.00 0.00 0.00 40 1019.3
20260904154715 83 198 3.0 9.0 0.00 0.00 0.00 41 1019.2
20260904154220 83 150 2.0 8.0 0.00 0.00 0.00 41 1019.2
20260904153720 84 117 1.0 8.0 0.00 0.00 0.00 41 1019.2
20260904153229 84 136 1.0 8.0 0.00 0.00 0.00 40 1019.2
20260904152224 84 171 2.0 11.0 0.00 0.00 0.00 40 1019.2
20260904151713 85 150 3.0 11.0 0.00 0.00 0.00 39 1019.2
20260904151224 85 5 2.0 12.0 0.00 0.00 0.00 39 1019.3
20260904150730 85 107 3.0 12.0 0.00 0.00 0.00 38 1019.3
20260904150219 85 317 2.0 12.0 0.00 0.00 0.00 39 1019.3
20260904145229 84 153 2.0 10.0 0.00 0.00 0.00 40 1019.4
20260904144714 84 175 3.0 12.0 0.00 0.00 0.00 41 1019.3
20260904143718 83 117 4.0 12.0 0.00 0.00 0.00 42 1019.4
20260904143215 83 163 5.0 12.0 0.00 0.00 0.00 40 1019.4
20260904141218 83 183 4.0 11.0 0.00 0.00 0.00 41 1019.4
20260904140729 84 163 4.0 15.0 0.00 0.00 0.00 41 1019.5
20260904140215 83 135 6.0 15.0 0.00 0.00 0.00 42 1019.6
20260904135232 83 161 6.0 13.0 0.00 0.00 0.00 40 1019.6
20260904134726 84 161 5.0 13.0 0.00 0.00 0.00 40 1019.6
20260904134221 84 159 3.0 13.0 0.00 0.00 0.00 40 1019.7
20260904133724 86 192 2.0 13.0 0.00 0.00 0.00 39 1019.8
20260904133224 85 283 4.0 13.0 0.00 0.00 0.00 40 1019.9
20260904132208 85 355 1.0 11.0 0.00 0.00 0.00 39 1020.0
20260904130210 84 123 1.0 9.0 0.00 0.00 0.00 40 1020.1
20260904125726 83 73 2.0 11.0 0.00 0.00 0.00 40 1020.3
20260904125218 83 320 3.0 11.0 0.00 0.00 0.00 42 1020.4
20260904124223 83 350 3.0 13.0 0.00 0.00 0.00 41 1020.5
20260904123720 82 301 4.0 13.0 0.00 0.00 0.00 42 1020.6
20260904123220 82 165 5.0 13.0 0.00 0.00 0.00 41 1020.6
20260904122716 83 171 4.0 13.0 0.00 0.00 0.00 41 1020.5
20260904122230 82 113 4.0 15.0 0.00 0.00 0.00 43 1020.6
20260904121720 82 86 7.0 15.0 0.00 0.00 0.00 42 1020.6
20260904121224 81 167 8.0 18.0 0.00 0.00 0.00 43 1020.6
20260904120720 81 151 6.0 18.0 0.00 0.00 0.00 43 1020.6
20260904120220 82 163 5.0 18.0 0.00 0.00 0.00 43 1020.6
20260904115726 82 180 5.0 14.0 0.00 0.00 0.00 42 1020.6
20260904114723 82 142 6.0 14.0 0.00 0.00 0.00 43 1020.7
20260904114221 81 94 6.0 13.0 0.00 0.00 0.00 44 1020.8
20260904113723 81 175 6.0 13.0 0.00 0.00 0.00 43 1020.8
20260904113210 80 134 6.0 13.0 0.00 0.00 0.00 44 1020.8
20260904112718 80 159 5.0 13.0 0.00 0.00 0.00 43 1020.9
20260904112217 80 166 5.0 13.0 0.00 0.00 0.00 45 1020.9
20260904111726 79 130 5.0 13.0 0.00 0.00 0.00 44 1021.0
20260904111219 79 167 7.0 12.0 0.00 0.00 0.00 45 1021.1
20260904110729 79 178 7.0 12.0 0.00 0.00 0.00 45 1021.1
20260904110224 80 157 6.0 13.0 0.00 0.00 0.00 45 1021.0
20260904105728 79 162 6.0 14.0 0.00 0.00 0.00 45 1021.2
20260904105212 79 166 7.0 14.0 0.00 0.00 0.00 45 1021.3
20260904104728 78 170 7.0 14.0 0.00 0.00 0.00 46 1021.3
20260904104210 78 130 7.0 14.0 0.00 0.00 0.00 46 1021.4
20260904103720 78 142 7.0 14.0 0.00 0.00 0.00 46 1021.5
20260904103220 78 160 6.0 12.0 0.00 0.00 0.00 46 1021.4
20260904102722 78 106 7.0 12.0 0.00 0.00 0.00 47 1021.5
20260904102214 78 184 6.0 11.0 0.00 0.00 0.00 46 1021.7
20260904100730 77 157 5.0 10.0 0.00 0.00 0.00 47 1021.9
20260904100219 77 102 5.0 11.0 0.00 0.00 0.00 46 1022.0
20260904095224 76 190 5.0 9.0 0.00 0.00 0.00 48 1022.1
20260904094714 76 161 4.0 11.0 0.00 0.00 0.00 48 1022.1
20260904094215 76 144 4.0 11.0 0.00 0.00 0.00 48 1022.2
20260904093713 75 164 5.0 10.0 0.00 0.00 0.00 48 1022.2
20260904093219 75 181 5.0 10.0 0.00 0.00 0.00 49 1022.2
20260904092721 75 178 5.0 10.0 0.00 0.00 0.00 48 1022.3
20260904091711 75 173 4.0 10.0 0.00 0.00 0.00 50 1022.3
20260904091222 74 162 5.0 11.0 0.00 0.00 0.00 50 1022.3
20260904090717 74 113 5.0 11.0 0.00 0.00 0.00 49 1022.3
20260904090220 74 188 4.0 11.0 0.00 0.00 0.00 50 1022.4
20260904085714 73 167 5.0 9.0 0.00 0.00 0.00 51 1022.4